Regional Weather Roundup
Issued by NWS Upton, NY

Current Version | Previous Version | Text Only | Print | Product List | Glossary On
Versions: 1 2 3 4 5 6 7 8 9 10 11 12 13 14 15 16 17 18 19 20 21 22 23 24 25 26 27 28 29 30 31 32 33 34 35 36 37 38 39 40 41 42 43 44 45 46 47 48 49 50
000
ASUS41 KOKX 280605
RWROKX

REGIONAL WEATHER ROUNDUP
NATIONAL WEATHER SERVICE NEW YORK NY
200 AM EDT MON JUL 28 2014

NOTE: "FAIR" INDICATES FEW OR NO CLOUDS BELOW 12,000 FEET WITH NO
SIGNIFICANT WEATHER AND/OR OBSTRUCTIONS TO VISIBILITY.

NYZ071-072-176-178-NJZ106-104-280700-
NEW YORK CITY METRO AREA


CITY           SKY/WX    TMP DP  RH WIND       PRES   REMARKS
CENTRAL PARK   RAIN      75  72  90 VRB3      29.64F FOG
LAGUARDIA APRT TSTM      77  72  84 S6        29.61F
KENNEDY INTL   TSTM      75  72  90 S10       29.63F
NEWARK/LIBERTY TSTM      74  72  93 SE3       29.60F
BRNX BOT. GARD   N/A     75  72  88 SW6       29.65F
TETERBORO      TSTM      76  71  85 S5        29.59F
$$

NYZ177-179-078>081-280700-
LONG ISLAND NEW YORK

CITY           SKY/WX    TMP DP  RH WIND       PRES   REMARKS
FARMINGDALE    CLOUDY    72  71  97 SW9       29.64F
ISLIP          CLOUDY    75  71  87 S7        29.62F
SHIRLEY        CLOUDY    73  71  93 S9        29.65F
WESTHAMPTON    CLOUDY    72  70  93 SW8       29.66F
MONTAUK POINT    N/A     72  70  93 S5        29.67F
$$

NYZ052-065-067-280700-
HUDSON VALLEY

CITY           SKY/WX    TMP DP  RH WIND       PRES   REMARKS
WHITE PLAINS   CLOUDY    73  72  96 CALM      29.62F THUNDER
NEWBURGH       RAIN      72  70  94 W8        29.63F
MONTGOMERY     LGT RAIN  70  67  90 S6        29.61F
POUGHKEEPSIE   LGT RAIN  73  69  87 CALM      29.59F
ALBANY         CLOUDY    71  68  90 CALM      29.61F
$$

NJZ001-105-106-008-010-013-015-019>022-104-280700-
NEW JERSEY

CITY           SKY/WX    TMP DP  RH WIND       PRES   REMARKS
NEWARK/LIBERTY TSTM      74  72  93 SE3       29.60F
TETERBORO      TSTM      76  71  85 S5        29.59F
CALDWELL       LGT RAIN  67  64  90 CALM      29.59F
MORRISTOWN     RAIN      68  64  88 CALM      29.58F
SOMERVILLE     CLOUDY    72  70  93 CALM      29.56F
LINDEN         MOCLDY    76  74  93 SE6       29.58F
SUSSEX         CLOUDY    71  67  87 SE3       29.58F
ANDOVER          N/A     66  65  96 CALM      29.58F
TRENTON        LGT RAIN  70  67  90 MISG      29.60S
MILLVILLE      CLOUDY    77  72  84 VRB5      29.63F
ATLANTIC CITY  MOCLDY    75  71  87 S7        29.62F
WRIGHTSTOWN    TSTM      68  68 100 S14       29.63F FOG
TOMS RIVER     CLOUDY    75  72  88 S7        29.62F
BELMAR         CLOUDY    75  70  83 E6        29.61F
$$

PAZ047>061-062-071-280700-
EASTERN PENNSYLVANIA

CITY           SKY/WX    TMP DP  RH WIND       PRES   REMARKS
PHILADELPHIA   TSTM      71  68  90 S8        29.62F
ALLENTOWN      CLOUDY    68  64  87 E6        29.59F
SCRANTON       MOCLDY    68  59  73 CALM      29.59F
$$

CTZ002-004>006-009-010-012-RIZ004-006-007-MAZ004-011-015-280700-
SOUTHERN NEW ENGLAND
 IN CT

CITY           SKY/WX    TMP DP  RH WIND       PRES   REMARKS
BRADLEY INTL   CLOUDY    65  62  90 CALM      29.63F
HARTFORD       CLOUDY    70  68  93 CALM      29.62F
DANBURY        LGT RAIN  73  69  87 VRB3      29.63F
WTRBRY/OXFORD  CLOUDY    72  66  83 S5        29.66F
BRIDGEPORT     CLOUDY    74  71  91 S6        29.62F
MERIDEN        CLOUDY    71  69  93 CALM      29.63F
NEW HAVEN      CLOUDY    75  71  87 S3        29.63F
CHESTER        CLOUDY    72  70  94 S7        29.66F FOG
GROTON         CLOUDY    70  70 100 S5        29.65F FOG
WILLIMANTIC    MOCLDY    64  63  96 CALM      29.67S

 IN RI

CITY           SKY/WX    TMP DP  RH WIND       PRES   REMARKS
PROVIDENCE     CLOUDY    71  69  93 S9        29.67F FOG
BLOCK ISLAND   CLOUDY    70  68  94 S8        29.67F
WESTERLY       CLOUDY    73  70  90 S6        29.67F FOG

 IN MA

CITY           SKY/WX    TMP DP  RH WIND       PRES   REMARKS
BOSTON         PTCLDY    68  67  96 S5        29.66F
WORCESTER      PTCLDY    64  61  90 W6        29.68F
WESTFIELD      CLOUDY    65  63  93 N3        29.64F
PROVINCETOWN   PTCLDY    70  70 100 SW10      29.69S
NANTUCKET      FOG       67  66  97 SE3       29.70F VSB 1/4
$$

ANZ330-335-338-340-345-350-353-355-280700-
COASTAL MARINE OBSERVATIONS


STATION/POSITION TIME  SKY/WX   TEMP    WIND        PRES    VSBY  WAVE
                                AIR SEA DIR/SP/G                  HT/PER
                 (UTC)          (F)     (DEG/KT/KT) (MB)    (MI)  (FT/S)
NY HARB ENTRANCE NOT AVBL
4S FIRE IS       NOT AVBL
23SW MTP         0600            72 71              1003.6          4/ 6
HUDSON CANYON    0600            75 74  210/ 12/ 16 1004.6          4/ 6
EXECUTION ROCKS  0600            76 71  190/ 12/ 16   N/A
WESTERN LI SOUND 0600            76     180/ 10/ 12   N/A           0
CENTRAL LI SOUND 0500            72 72  200/ 14/ 16   N/A           2/ 3
EASTERN LI SOUND 0500            71 67  260/  6/ 14   N/A
ROBBINS REEF     0600            75     140/  2/  3   N/A
$$


>>>>>>>>>>>>>>>>>>>>>>>>>>>> KEY <<<<<<<<<<<<<<<<<<<<<<<<<<<
>                                                          <
>     SKY/WX - SKY CONDITION/PRESENT WEATHER               <
>     TMP    - TEMPERATURE IN FAHRENHEIT                   <
>     DP     - DEWPOINT IN FAHRENHEIT                      <
>     RH     - RELATIVE HUMIDITY IN PERCENT                <
>     WIND   - DIRECTION AND SPEED IN MPH                  <
>     PRES   - MEAN SEA LEVEL PRESSURE IN INCHES OF HG     <
>     WCI    - WIND CHILL INDEX                            <
>     VSB    - VISIBILITY IN MILES                         <
>     HX     - HEAT INDEX                                  <
>     TC     - TEMPERATURE IN CELSIUS                      <
>     VRB    - VARIABLE WIND DIRECTION                     <
>                                                          <
>>>>>>>>>>>>>>>>>>>>>>>>>>>> KEY <<<<<<<<<<<<<<<<<<<<<<<<<<<





USA.gov is the U.S. government's official web portal to all federal, state and local government web resources and services.